TimeCST,TemperatureF,Dew PointF,Humidity,Sea Level PressureIn,VisibilityMPH,Wind Direction,Wind SpeedMPH,Gust SpeedMPH,PrecipitationIn,Events,Conditions,WindDirDegrees,DateUTC
12:29 AM,60.8,60.8,100,29.97,8.0,NE,4.6,-,N/A,,Clear,50,2012-12-07 06:29:00
12:39 AM,60.8,59.0,94,29.97,6.0,NE,5.8,-,N/A,,Clear,50,2012-12-07 06:39:00
12:41 AM,60.8,59.0,94,29.97,6.0,NE,4.6,-,N/A,,Clear,50,2012-12-07 06:41:00
12:54 AM,60.8,59.0,94,29.96,6.0,ENE,4.6,-,N/A,,Clear,60,2012-12-07 06:54:00
12:55 AM,60.4,59.7,97,29.96,6.0,ENE,5.8,-,N/A,,Clear,60,2012-12-07 06:55:00
1:21 AM,60.8,59.0,94,29.96,6.0,Calm,Calm,-,N/A,,Clear,0,2012-12-07 07:21:00
1:35 AM,60.8,60.8,100,29.96,2.5,Calm,Calm,-,N/A,,Clear,0,2012-12-07 07:35:00
1:37 AM,60.8,60.8,100,29.96,2.0,Calm,Calm,-,N/A,,Clear,0,2012-12-07 07:37:00
1:38 AM,60.8,60.8,100,29.96,1.8,Calm,Calm,-,N/A,,Clear,0,2012-12-07 07:38:00
1:39 AM,60.8,60.8,100,29.96,1.8,Calm,Calm,-,N/A,,Clear,0,2012-12-07 07:39:00
1:40 AM,60.8,60.8,100,29.96,1.5,Calm,Calm,-,N/A,,Clear,0,2012-12-07 07:40:00
1:42 AM,60.8,60.8,100,29.96,1.8,Calm,Calm,-,N/A,,Clear,0,2012-12-07 07:42:00
1:44 AM,60.8,60.8,100,29.96,1.8,NNE,3.5,-,N/A,,Clear,30,2012-12-07 07:44:00
1:45 AM,60.8,60.8,100,29.96,2.0,NNE,3.5,-,N/A,,Clear,30,2012-12-07 07:45:00
1:46 AM,60.8,60.8,100,29.96,2.5,NE,3.5,-,N/A,,Clear,40,2012-12-07 07:46:00
1:50 AM,60.8,59.0,94,29.96,4.0,NE,4.6,-,N/A,,Clear,50,2012-12-07 07:50:00
1:55 AM,60.3,59.7,98,29.96,5.0,NE,4.6,-,N/A,,Clear,50,2012-12-07 07:55:00
1:56 AM,60.8,59.0,94,29.96,5.0,NE,4.6,-,N/A,,Clear,50,2012-12-07 07:56:00
2:09 AM,60.8,60.8,100,29.96,6.0,NE,3.5,-,N/A,,Clear,50,2012-12-07 08:09:00
2:17 AM,60.8,60.8,100,29.96,6.0,NE,3.5,-,N/A,,Clear,50,2012-12-07 08:17:00
2:28 AM,60.8,59.0,94,29.96,6.0,NE,4.6,-,N/A,,Clear,50,2012-12-07 08:28:00
2:50 AM,60.8,59.0,94,29.95,5.0,ENE,3.5,-,N/A,,Clear,60,2012-12-07 08:50:00
2:55 AM,59.9,59.4,98,29.95,5.0,NE,4.6,-,N/A,,Clear,50,2012-12-07 08:55:00
3:09 AM,60.8,59.0,94,29.94,5.0,ENE,3.5,-,N/A,,Clear,60,2012-12-07 09:09:00
3:25 AM,60.8,59.0,94,29.94,5.0,NE,4.6,-,N/A,,Scattered Clouds,50,2012-12-07 09:25:00
3:28 AM,60.8,60.8,100,29.94,5.0,NE,4.6,-,N/A,,Mostly Cloudy,50,2012-12-07 09:28:00
3:36 AM,60.8,60.8,100,29.95,4.0,NE,4.6,-,N/A,,Mostly Cloudy,50,2012-12-07 09:36:00
3:40 AM,60.8,60.8,100,29.95,4.0,NE,4.6,-,N/A,,Mostly Cloudy,50,2012-12-07 09:40:00
3:41 AM,60.8,60.8,100,29.95,4.0,NE,4.6,-,N/A,,Mostly Cloudy,50,2012-12-07 09:41:00
3:47 AM,60.8,59.0,94,29.95,5.0,NE,3.5,-,N/A,,Mostly Cloudy,40,2012-12-07 09:47:00
3:54 AM,60.8,59.0,94,29.95,5.0,NE,4.6,-,N/A,,Scattered Clouds,50,2012-12-07 09:54:00
3:55 AM,60.1,59.4,97,29.95,5.0,NE,4.6,-,N/A,,Scattered Clouds,50,2012-12-07 09:55:00
4:08 AM,59.0,59.0,100,29.95,5.0,NE,4.6,-,N/A,,Partly Cloudy,50,2012-12-07 10:08:00
4:19 AM,59.0,59.0,100,29.94,5.0,ENE,4.6,-,N/A,,Clear,60,2012-12-07 10:19:00
4:54 AM,59.0,59.0,100,29.95,6.0,NNE,4.6,-,N/A,,Partly Cloudy,30,2012-12-07 10:54:00
4:55 AM,59.4,59.2,99,29.95,6.0,NE,4.6,-,N/A,,Partly Cloudy,40,2012-12-07 10:55:00
4:57 AM,59.0,59.0,100,29.95,6.0,NE,5.8,-,N/A,,Partly Cloudy,40,2012-12-07 10:57:00
5:07 AM,59.0,59.0,100,29.96,6.0,NE,4.6,-,N/A,,Partly Cloudy,50,2012-12-07 11:07:00
5:17 AM,60.8,59.0,94,29.96,6.0,ENE,4.6,-,N/A,,Mostly Cloudy,70,2012-12-07 11:17:00
5:22 AM,60.8,59.0,94,29.96,6.0,East,3.5,-,N/A,,Scattered Clouds,80,2012-12-07 11:22:00
5:33 AM,60.8,60.8,100,29.96,6.0,East,5.8,-,N/A,,Mostly Cloudy,80,2012-12-07 11:33:00
5:46 AM,60.8,59.0,94,29.96,6.0,East,6.9,-,N/A,,Scattered Clouds,80,2012-12-07 11:46:00
5:55 AM,60.3,59.9,99,29.96,8.0,East,4.6,-,N/A,,Scattered Clouds,80,2012-12-07 11:55:00
6:02 AM,60.8,60.8,100,29.97,8.0,East,5.8,-,N/A,,Mostly Cloudy,80,2012-12-07 12:02:00
6:39 AM,60.8,60.8,100,29.98,10.0,ENE,5.8,-,N/A,,Overcast,70,2012-12-07 12:39:00
6:53 AM,60.8,60.8,100,29.98,9.0,ENE,4.6,-,N/A,,Overcast,70,2012-12-07 12:53:00
6:55 AM,60.3,59.9,99,29.98,9.0,ENE,4.6,-,N/A,,Overcast,70,2012-12-07 12:55:00
7:16 AM,60.8,60.8,100,29.99,8.0,East,3.5,-,N/A,,Overcast,80,2012-12-07 13:16:00
7:51 AM,60.8,60.8,100,29.99,6.0,East,5.8,-,N/A,,Overcast,90,2012-12-07 13:51:00
7:55 AM,61.3,61.0,99,29.99,6.0,East,4.6,-,N/A,,Overcast,90,2012-12-07 13:55:00
7:59 AM,60.8,60.8,100,29.99,6.0,East,3.5,-,N/A,,Overcast,80,2012-12-07 13:59:00
8:55 AM,63.7,63.1,98,29.99,9.0,ENE,5.8,-,N/A,,Overcast,70,2012-12-07 14:55:00
9:12 AM,64.4,64.4,100,29.99,10.0,ENE,4.6,-,N/A,,Overcast,60,2012-12-07 15:12:00
9:27 AM,66.2,64.4,94,30.00,10.0,ENE,5.8,-,N/A,,Mostly Cloudy,60,2012-12-07 15:27:00
9:30 AM,66.2,66.2,100,30.00,10.0,East,4.6,-,N/A,,Scattered Clouds,80,2012-12-07 15:30:00
9:54 AM,68.0,64.4,88,29.99,10.0,ENE,4.6,-,N/A,,Mostly Cloudy,70,2012-12-07 15:54:00
9:55 AM,67.1,65.1,93,30.00,10.0,ENE,3.5,-,N/A,,Mostly Cloudy,60,2012-12-07 15:55:00
10:10 AM,69.8,64.4,83,29.99,10.0,Variable,5.8,-,N/A,,Mostly Cloudy,0,2012-12-07 16:10:00
10:25 AM,69.8,64.4,83,29.99,10.0,Variable,5.8,-,N/A,,Overcast,0,2012-12-07 16:25:00
10:55 AM,70.2,65.1,84,29.98,10.0,ENE,5.8,-,N/A,,Overcast,60,2012-12-07 16:55:00
11:14 AM,69.8,64.4,83,29.97,10.0,ENE,6.9,-,N/A,,Overcast,60,2012-12-07 17:14:00
11:41 AM,71.6,66.2,83,29.97,10.0,South,6.9,-,N/A,,Mostly Cloudy,180,2012-12-07 17:41:00
11:46 AM,71.6,66.2,83,29.96,10.0,SSE,6.9,-,N/A,,Mostly Cloudy,160,2012-12-07 17:46:00
11:55 AM,72.1,65.5,79,29.96,10.0,Variable,3.5,-,N/A,,Overcast,0,2012-12-07 17:55:00
12:00 PM,71.6,66.2,83,29.96,10.0,Variable,3.5,-,N/A,,Mostly Cloudy,0,2012-12-07 18:00:00
12:03 PM,71.6,66.2,83,29.96,10.0,Variable,3.5,-,N/A,,Overcast,0,2012-12-07 18:03:00
12:09 PM,73.4,66.2,78,29.96,10.0,Variable,3.5,-,N/A,,Mostly Cloudy,0,2012-12-07 18:09:00
12:11 PM,73.4,66.2,78,29.95,10.0,SSE,5.8,-,N/A,,Mostly Cloudy,150,2012-12-07 18:11:00
12:15 PM,71.6,66.2,83,29.95,10.0,SSE,8.1,-,N/A,,Mostly Cloudy,150,2012-12-07 18:15:00
12:22 PM,73.4,66.2,78,29.95,10.0,SSE,8.1,-,N/A,,Mostly Cloudy,150,2012-12-07 18:22:00
12:23 PM,73.4,66.2,78,29.95,10.0,SSE,6.9,-,N/A,,Mostly Cloudy,150,2012-12-07 18:23:00
12:24 PM,73.4,66.2,78,29.95,10.0,SE,8.1,-,N/A,,Mostly Cloudy,140,2012-12-07 18:24:00
12:35 PM,75.2,66.2,73,29.94,10.0,SE,8.1,-,N/A,,Mostly Cloudy,140,2012-12-07 18:35:00
12:36 PM,75.2,66.2,73,29.94,10.0,SE,9.2,-,N/A,,Scattered Clouds,140,2012-12-07 18:36:00
12:38 PM,75.2,66.2,73,29.94,10.0,SE,9.2,-,N/A,,Mostly Cloudy,140,2012-12-07 18:38:00
12:50 PM,73.4,66.2,78,29.94,10.0,SE,9.2,-,N/A,,Mostly Cloudy,140,2012-12-07 18:50:00
12:55 PM,74.3,65.7,74,29.94,10.0,SSE,9.2,-,N/A,,Mostly Cloudy,150,2012-12-07 18:55:00
1:00 PM,75.2,66.2,73,29.94,10.0,SSE,9.2,-,N/A,,Mostly Cloudy,150,2012-12-07 19:00:00
1:01 PM,75.2,66.2,73,29.93,10.0,SE,9.2,-,N/A,,Scattered Clouds,140,2012-12-07 19:01:00
1:02 PM,75.2,66.2,73,29.94,10.0,SE,8.1,-,N/A,,Mostly Cloudy,140,2012-12-07 19:02:00
1:04 PM,75.2,66.2,73,29.93,10.0,SSE,11.5,-,N/A,,Scattered Clouds,150,2012-12-07 19:04:00
1:55 PM,74.5,66.0,75,29.92,10.0,SSE,10.4,-,N/A,,Partly Cloudy,150,2012-12-07 19:55:00
2:55 PM,72.5,65.8,80,29.91,10.0,SE,9.2,-,N/A,,Partly Cloudy,140,2012-12-07 20:55:00
3:55 PM,70.9,65.7,83,29.91,10.0,SE,8.1,-,N/A,,Overcast,130,2012-12-07 21:55:00
4:55 PM,70.2,65.8,86,29.92,10.0,ESE,6.9,-,N/A,,Overcast,110,2012-12-07 22:55:00
5:55 PM,69.3,65.7,88,29.92,10.0,East,6.9,-,N/A,,Mostly Cloudy,100,2012-12-07 23:55:00
6:23 PM,68.0,66.2,94,29.93,10.0,East,4.6,-,N/A,,Mostly Cloudy,90,2012-12-08 00:23:00
6:26 PM,68.0,66.2,94,29.93,10.0,East,5.8,-,N/A,,Mostly Cloudy,90,2012-12-08 00:26:00
6:55 PM,68.5,65.3,89,29.93,10.0,East,8.1,-,N/A,,Overcast,90,2012-12-08 00:55:00
7:55 PM,68.2,65.5,91,29.95,10.0,East,4.6,-,N/A,,Overcast,80,2012-12-08 01:55:00
8:55 PM,66.7,64.9,94,29.95,10.0,East,4.6,-,N/A,,Scattered Clouds,90,2012-12-08 02:55:00
9:08 PM,66.2,64.4,94,29.95,10.0,East,4.6,-,N/A,,Mostly Cloudy,80,2012-12-08 03:08:00
9:55 PM,66.0,64.4,94,29.96,10.0,ENE,4.6,-,N/A,,Mostly Cloudy,70,2012-12-08 03:55:00
10:55 PM,65.8,64.8,96,29.95,10.0,East,4.6,-,N/A,,Scattered Clouds,80,2012-12-08 04:55:00
11:10 PM,66.2,64.4,94,29.95,10.0,East,4.6,-,N/A,,Mostly Cloudy,90,2012-12-08 05:10:00
11:16 PM,66.2,64.4,94,29.95,10.0,East,3.5,-,N/A,,Mostly Cloudy,90,2012-12-08 05:16:00
11:29 PM,66.2,66.2,100,29.95,10.0,East,4.6,-,N/A,,Overcast,90,2012-12-08 05:29:00
11:51 PM,68.0,66.2,94,29.94,10.0,East,4.6,-,N/A,,Overcast,100,2012-12-08 05:51:00
11:55 PM,67.5,66.4,96,29.95,10.0,East,4.6,-,N/A,,Overcast,100,2012-12-08 05:55:00